Showing default

FLOCK 4Q 31, 58285

Orbit data source: Space-Track

FLOCK 4Q 31, 58285 is a payload satellite owned by Planet (US) in SSO that was launched on Sat, 11 Nov 2023 UTC via an FALCON 9 launch vehicle from the Air Force Western Test Range (AFWTR). Payload-class satellites include a variety of spacecraft equipped with specific instruments for various scientific and technological missions. These include communications satellites like Starlink; space stations such as the ISS; scientific satellites like the Hubble; Earth observation satellites from companies like Planet Labs, Umbra, and HawkEye 360; GPS; miniature CubeSats for education and research; and military/defense satellites.

Loading next visibility...
Identifier
58285, 2023-174AF
Orbit
SSO
Country
Flag of USUS
Related business
Manufacturer
Planet
Mission
Operational Commercial Imaging
Bus & Motor
CUBESAT 3U, Unknown motor
Mass
5.7 kg wet, 5.7 kg dry
Launch date (UTC)
2023-11-11 (2 years ago)
Launch vehicle
FALCON 9
Launch site
Air Force Western Test Range (AFWTR)
Object type
Payload
Rocket body
Debris
Shape & HBR
Box + 2 Pan, 0.1 m
Radar Cross Section
0.035 m², Medium (>0.1 m² and < 1m²)

Expand to show TLE details & history
Last TLE update: 1 day ago

TLE from 1 day ago
0 FLOCK 4Q 31
1 58285U 23174AF  25259.77702046  .00023170  00000-0  61185-3 0  9998
2 58285  97.4150 340.5495 0008736  69.8228 290.3956 15.38417435103497
Epoch: 2025-09-16T18:38Z
TLE epoch observation values (Epoch: 2025-09-16T18:38:54.567Z)
Latitude
-0.00003°
Longitude
64.85968°
Altitude
451.829 km
Speed
7.642 km/s
True Right ascension
22h 42m 11s
True Declination
0° 00' 00"
Sunlit
Object was in full shadow at epoch
Visualization orbit readout
Latitude
Unknown
Longitude
Unknown
Altitude
Unknown
Speed
Unknown
Apparent Right ascension
Unknown
Apparent Declination
Unknown
Sunlit
N/A
Visualization observer readout
Local Sidereal Time
12:34:24
Azimuth
Unknown
Elevation
Unknown
Doppler factor
Unknown
Orbital elements
Apogee altitude
453.693 km
Perigee altitude
441.767 km
Semi-major axis
6,825.867 km
Eccentricity
0.00087
Inclination
97.415°
RAAN
340.5495°
Arg. of periapsis
69.8228°
True anomaly
290.30173°
Mean anomaly
290.3956°
Eccentric anomaly
290.34867°
Mean motion
3.84863 °/min
Orbital period
93.54 mins
BSTAR
0.00061185
Loading maneuver chart data...
Computing Atmospheric mass density...
Loading historical data...
Loading historical data...
Loading historical data...
Loading historical data...
Loading historical data...
Loading historical data...
Loading historical data...

Documentation

Showing up to 5 results
|